Simultaneous Nadir Overpasses (SNOs) Predictions

Prediction of SNOs between METOP-B and NOAA-19 Satellite Orbit:

Table of predicted SNOs for the next 14.0 days since TLE Epoch: 10/17/2020
Index Date (METOP-B) Time (METOP-B) Lat,Lon (METOP-B) SZA (METOP-B ) Date (NOAA-19) Time (NOAA-19) Lat,Lon (NOAA-19) SZA (NOAA-19 ) Distance(km) Time Diff (sec)
1 10/21/2020 07:31:52 -80.22, -88.28 87.78 10/21/2020 07:30:46 -80.23, -88.31 87.79 2.13 66
2 10/21/2020 08:22:32 80.21, 79.01 92.23 10/21/2020 08:21:46 80.23, 78.98 92.23 2.24 46
3 10/21/2020 09:13:14 -80.21,-113.74 87.77 10/21/2020 09:12:46 -80.22,-113.64 87.76 2.78 28
4 10/21/2020 10:03:54 80.20, 53.55 92.24 10/21/2020 10:03:46 80.22, 53.64 92.26 2.77 8
5 10/21/2020 10:54:35 -80.22,-138.89 87.72 10/21/2020 10:54:46 -80.21,-138.98 87.73 1.90 11
6 10/21/2020 11:45:15 80.22, 28.41 92.29 10/21/2020 11:45:46 80.21, 28.30 92.29 2.09 31
7 10/21/2020 12:35:57 -80.21,-164.35 87.71 10/21/2020 12:36:46 -80.20,-164.31 87.70 1.22 49
